Location: Eaton Estates
(41.3089°N, 82.0057°W)
Time: 15:29:22
(UTC+00:00)

SEEDS - Visible Passes

Search period start: 20 March 2023 00:00
Search period end: 30 March 2023 00:00
Orbit: 573 x 589 km, 97.6° (Epoch: 19 March)

Date Brightness Start Highest point End Pass type
(mag) Time Alt. Az. Time Alt. Az. Time Alt. Az.
20 Mar ? 08:18:31 10° ENE 08:20:30 13° E 08:20:42 13° E visible
20 Mar ? 09:52:06 10° N 09:56:08 50° WNW 09:57:04 41° WSW visible
21 Mar ? 08:23:25 10° NE 08:25:50 15° E 08:26:12 15° E visible
21 Mar ? 09:57:26 10° N 10:01:23 44° WNW 10:02:35 34° WSW visible
22 Mar ? 08:28:22 10° NE 08:31:09 17° E 08:31:42 17° ESE visible
22 Mar ? 10:02:46 10° N 10:06:38 38° WNW 10:08:04 28° WSW visible
23 Mar ? 08:33:23 10° NE 08:36:26 20° E 08:37:11 19° ESE visible
23 Mar ? 10:08:05 10° N 10:11:51 33° WNW 10:13:32 24° WSW visible
24 Mar ? 08:38:25 10° NE 08:41:43 22° E 08:42:38 21° ESE visible
24 Mar ? 10:13:25 10° N 10:17:03 29° WNW 10:19:00 20° WSW visible
25 Mar ? 08:43:28 10° NE 08:46:57 25° E 08:48:04 22° ESE visible
25 Mar ? 10:18:45 10° NNW 10:22:13 26° WNW 10:24:26 17° WSW visible
26 Mar ? 08:48:32 10° NE 08:52:11 29° E 08:53:30 24° SE visible
26 Mar ? 10:24:04 10° NNW 10:27:23 23° WNW 10:29:51 14° WSW visible
27 Mar ? 08:53:36 10° NNE 08:57:23 33° E 08:58:53 25° SE visible
27 Mar ? 10:29:25 10° NNW 10:32:31 21° WNW 10:35:15 12° WSW visible
28 Mar ? 08:58:41 10° NNE 09:02:35 38° E 09:04:16 26° SE visible
28 Mar ? 10:34:46 10° NNW 10:37:38 18° WNW 10:40:30 10° WSW visible
29 Mar ? 09:03:45 10° NNE 09:07:45 43° E 09:09:38 26° SSE visible
29 Mar ? 10:40:08 10° NNW 10:42:44 16° WNW 10:45:19 10° WSW visible
